Orange, MA

2:54 PM EST on February 14, 2016 (GMT -0500)
Orange Municipal

Weather History for KORE - September, 2012

Change the Weather History Date:

Saturday, September 22, 2012

  Actual Average Record
Temperature  
Mean Temperature 60 °F -  
Max Temperature 73 °F 67 °F 86 °F (2010)
Min Temperature 48 °F 44 °F 32 °F (1997)
Degree Days  
Heating Degree Days 4    
Growing Degree Days 10 (Base 50)    
Moisture  
Dew Point 54 °F    
Average Humidity 83    
Maximum Humidity 100    
Minimum Humidity 55    
Precipitation  
Precipitation 0.34 in - - ()
Sea Level Pressure  
Sea Level Pressure 29.92 in    
Wind  
Wind Speed 4 mph (SSW)    
Max Wind Speed 14 mph    
Max Gust Speed 20 mph    
Visibility 9 miles    
Events Rain , Thunderstorm    
Averages and records for this station are not official NWS values.
T = Trace of Precipitation, MM = Missing Value Source: NWS Daily Summary

Daily Weather History Graph

Daily Weather History Graph

Search for Another Location

Airport or City:

Trip Planner

Search our weather history database for the weather conditions in past years. The results will help you decide how hot, cold, wet, or windy it might be!

Date:

Astronomy

Sep. 22, 2012 Rise Set
Actual Time 6:36 AM EDT 6:45 PM EDT
Civil Twilight 6:08 AM EDT 7:13 PM EDT
Nautical Twilight 5:35 AM EDT 7:46 PM EDT
Astronomical Twilight 5:02 AM EDT 8:20 PM EDT
Moon 2:00 PM EDT (9/22) 11:39 PM EDT (9/22)
Length of Visible Light 13h 04m
Length of Day
12h 08m
Waxing Crescent, 48% of the Moon is Illuminated
Sep 22
Waxing Crescent
Sep 22
First Quarter
Sep 29
Full
Oct 8
Last Quarter
Oct 15
New

Hourly Weather History & Observations

Time (EDT) Temp. Dew Point Humidity Pressure Visibility Wind Dir Wind Speed Gust Speed Precip Events Conditions
12:52 AM 48.9 °F 46.9 °F 93% 30.04 in 10.0 mi Calm Calm - N/A   Clear
1:40 AM 48.2 °F 46.4 °F 93% 30.03 in 10.0 mi NNW 3.5 mph - N/A   Scattered Clouds
1:50 AM 48.2 °F 48.2 °F 100% 30.03 in 10.0 mi NNE 3.5 mph - N/A   Mostly Cloudy
1:52 AM 50.0 °F 48.9 °F 96% 30.04 in 10.0 mi NNE 3.5 mph - N/A   Mostly Cloudy
2:52 AM 52.0 °F 50.0 °F 93% 30.02 in 10.0 mi Calm Calm - N/A   Overcast
3:52 AM 52.0 °F 50.0 °F 93% 30.01 in 10.0 mi Calm Calm - N/A   Overcast
4:52 AM 52.0 °F 50.0 °F 93% 30.01 in 10.0 mi Calm Calm - N/A   Overcast
5:52 AM 52.0 °F 50.0 °F 93% 30.00 in 10.0 mi Calm Calm - N/A   Overcast
6:52 AM 51.1 °F 48.9 °F 92% 30.01 in 10.0 mi West 3.5 mph - N/A   Overcast
7:35 AM 51.8 °F 48.2 °F 88% 30.00 in 10.0 mi SSW 3.5 mph - N/A   Overcast
7:52 AM 51.1 °F 48.9 °F 92% 30.01 in 10.0 mi West 3.5 mph - N/A   Overcast
8:52 AM 53.1 °F 48.9 °F 86% 30.00 in 10.0 mi Calm Calm - N/A   Overcast
9:08 AM 53.6 °F 48.2 °F 82% 29.98 in 10.0 mi East 4.6 mph - N/A   Overcast
10:47 AM 57.2 °F 51.8 °F 82% 29.95 in 10.0 mi SSW 3.5 mph - N/A   Mostly Cloudy
10:52 AM 57.0 °F 51.1 °F 81% 29.96 in 10.0 mi Calm Calm - N/A   Mostly Cloudy
11:11 AM 60.8 °F 51.8 °F 72% 29.94 in 10.0 mi Calm Calm - N/A   Scattered Clouds
11:52 AM 64.0 °F 54.0 °F 70% 29.93 in 10.0 mi SSW 8.1 mph - N/A   Partly Cloudy
12:52 PM 69.1 °F 54.0 °F 58% 29.90 in 10.0 mi South 9.2 mph - N/A   Clear
1:52 PM 70.0 °F 55.0 °F 59% 29.87 in 10.0 mi South 12.7 mph 19.6 mph N/A   Partly Cloudy
2:52 PM 73.0 °F 55.9 °F 55% 29.86 in 10.0 mi SSW 13.8 mph - N/A   Clear
4:52 PM 71.1 °F 57.0 °F 61% 29.86 in 10.0 mi SSW 9.2 mph - N/A   Overcast
5:52 PM 70.0 °F 57.9 °F 65% 29.85 in 10.0 mi South 10.4 mph - N/A   Mostly Cloudy
6:07 PM 69.8 °F 57.2 °F 64% 29.85 in 10.0 mi SSW 10.4 mph - N/A   Overcast
6:52 PM 68.0 °F 59.0 °F 73% 29.85 in 10.0 mi South 9.2 mph - N/A   Overcast
7:52 PM 66.9 °F 59.0 °F 76% 29.84 in 10.0 mi Variable 6.9 mph - N/A   Overcast
8:52 PM 66.9 °F 60.1 °F 79% 29.83 in 10.0 mi South 6.9 mph - N/A   Overcast
9:52 PM 66.0 °F 60.1 °F 81% 29.82 in 10.0 mi South 6.9 mph - N/A   Overcast
10:31 PM 66.2 °F 60.8 °F 83% 29.81 in 10.0 mi SSE 11.5 mph 18.4 mph N/A   Overcast
10:52 PM 64.9 °F 61.0 °F 87% 29.81 in 10.0 mi SSE 8.1 mph - N/A   Overcast
11:08 PM 64.4 °F 62.6 °F 94% 29.81 in 5.0 mi South 4.6 mph - 0.03 in Rain , Thunderstorm Rain
11:17 PM 64.4 °F 60.8 °F 88% 29.83 in 2.0 mi West 10.4 mph 17.3 mph 0.18 in Rain Heavy Rain
11:20 PM 62.6 °F 60.8 °F 94% 29.82 in 1.8 mi WNW 8.1 mph 17.3 mph 0.22 in Rain Heavy Rain
11:26 PM 62.6 °F 60.8 °F 94% 29.83 in 2.0 mi NNW 12.7 mph - 0.27 in Rain , Thunderstorm Heavy Rain
11:34 PM 62.6 °F 60.8 °F 94% 29.83 in 6.0 mi NW 10.4 mph - 0.29 in Rain , Thunderstorm Thunderstorms and Rain
11:52 PM 62.1 °F 59.0 °F 90% 29.83 in 7.0 mi North 4.6 mph - 0.34 in Rain , Thunderstorm Rain